STARLINK-31617

decayed
NORAD ID: 59455 Int'l Des: 2024-068 Owner: SPXS Country: US Constellation: starlink
LEOCIRCULAR
Group

About STARLINK-31617

Description loading...

Altitude History

Altitude vs Time

uPlot chart will show altitude changes over time

Two-Line Element Set

1 59455U 24068A 25122.83702049 .46473053 92436-5 48617-2 0 9992
2 59455 42.9755 330.3582 0017528 275.3850 205.6345 16.36077508 61217
Epoch: May 2, 2025 • Age: 3271 hours

Current Status

Position data unavailable
Launch Date Apr 10, 2024
Age 1.4 years
Decay Date May 2, 2025
Type internet

Technical Details

Classification Payload
Mass 730.00 kg
Dry Mass 700.00 kg
Total Mass 730.00 kg
Length 0.30 m
Diameter 4.10 m
Span 29.00 m
Shape Box + pan
Manufacturer SPXS
Bus Type Starlink V2M
Phase Status Unknown Transfer Status
Owner/State SPXS/US

Large Constellations

Loading constellations...